• In Kazakhstan
  • List of Countries
  • For 7 days
  • Water Temperature
  • Satellite Maps
  • Weather Map
  • News
  • Weather Widgets
  • user-avatar
    Login

    Hourly Weather Kaprun

    Today, 24 April, Wednesday

    Time Temperature Precipitation Wind Pressure Humidity
    00:00 0°C° 0 mm 4 mps 589 mmHg 85%
    01:00 0°C° 0 mm 5 mps 590 mmHg 85%
    02:00 0°C° 0 mm 5 mps 590 mmHg 86%
    03:00 0°C° 0 mm 5 mps 590 mmHg 86%
    04:00 0°C° 0 mm 4 mps 590 mmHg 87%
    05:00 +1°C° 0 mm 4 mps 591 mmHg 86%
    06:00 +1°C° 0 mm 5 mps 591 mmHg 84%
    07:00 +2°C° 0 mm 6 mps 592 mmHg 81%
    08:00 +3°C° 0 mm 6 mps 592 mmHg 79%
    09:00 +5°C° 0 mm 5 mps 593 mmHg 77%
    10:00 +6°C° 0 mm 5 mps 593 mmHg 74%
    11:00 +6°C° 0 mm 5 mps 593 mmHg 73%
    12:00 +7°C° 0 mm 5 mps 594 mmHg 72%
    13:00 +5°C° 0 mm 6 mps 594 mmHg 73%
    14:00 +5°C° 0 mm 6 mps 594 mmHg 73%
    15:00 +5°C° 0 mm 6 mps 594 mmHg 73%
    16:00 +6°C° 0 mm 5 mps 594 mmHg 73%
    17:00 +5°C° 0 mm 5 mps 593 mmHg 76%
    18:00 +3°C° 0 mm 5 mps 593 mmHg 80%
    19:00 +2°C° 0 mm 5 mps 593 mmHg 83%
    20:00 +3°C° 0 mm 4 mps 593 mmHg 84%
    21:00 +1°C° 0 mm 4 mps 594 mmHg 85%
    22:00 +1°C° 0 mm 4 mps 594 mmHg 86%
    23:00 +2°C° 0 mm 3 mps 594 mmHg 86%

    Tomorrow, 25 April, Thursday

    Time Temperature Precipitation Wind Pressure Humidity
    00:00 +1°C° 0 mm 3 mps 595 mmHg 87%
    01:00 +1°C° 0 mm 3 mps 595 mmHg 87%
    02:00 0°C° 0 mm 4 mps 595 mmHg 87%
    03:00 -1°C° 0 mm 4 mps 595 mmHg 87%
    04:00 -1°C° 0 mm 4 mps 595 mmHg 87%
    05:00 0°C° 0 mm 4 mps 595 mmHg 84%
    06:00 0°C° 0 mm 5 mps 595 mmHg 81%
    07:00 +1°C° 0 mm 5 mps 595 mmHg 78%
    08:00 +2°C° 0 mm 5 mps 596 mmHg 72%
    09:00 +5°C° 0 mm 5 mps 596 mmHg 67%
    10:00 +6°C° 0 mm 5 mps 597 mmHg 61%
    11:00 +7°C° 0 mm 5 mps 597 mmHg 57%
    12:00 +8°C° 0 mm 5 mps 598 mmHg 53%
    13:00 +9°C° 0 mm 5 mps 598 mmHg 50%
    14:00 +9°C° 0 mm 5 mps 597 mmHg 52%
    15:00 +8°C° 0 mm 5 mps 597 mmHg 55%
    16:00 +8°C° 0 mm 5 mps 596 mmHg 58%
    17:00 +6°C° 0 mm 5 mps 596 mmHg 65%
    18:00 +5°C° 0 mm 5 mps 595 mmHg 72%
    19:00 +3°C° 0 mm 4 mps 594 mmHg 79%
    20:00 +3°C° 0 mm 4 mps 595 mmHg 81%
    21:00 +3°C° 0 mm 4 mps 595 mmHg 82%
    22:00 +1°C° 0 mm 5 mps 595 mmHg 84%
    23:00 +1°C° 0 mm 4 mps 595 mmHg 85%

    Day after tomorrow, 26 April, Friday

    Time Temperature Precipitation Wind Pressure Humidity
    00:00 +1°C° 0 mm 4 mps 595 mmHg 85%
    01:00 +1°C° 0 mm 4 mps 594 mmHg 86%
    02:00 +1°C° 0 mm 4 mps 594 mmHg 86%
    03:00 +1°C° 0 mm 4 mps 594 mmHg 87%
    04:00 +1°C° 0 mm 4 mps 594 mmHg 87%
    05:00 +2°C° 0 mm 5 mps 594 mmHg 84%
    06:00 +3°C° 0 mm 5 mps 594 mmHg 80%
    07:00 +3°C° 0 mm 5 mps 594 mmHg 77%
    08:00 +6°C° 0 mm 5 mps 594 mmHg 70%
    09:00 +7°C° 0 mm 5 mps 595 mmHg 64%
    10:00 +8°C° 0 mm 6 mps 595 mmHg 57%
    11:00 +9°C° 0 mm 5 mps 595 mmHg 56%
    12:00 +9°C° 0 mm 5 mps 595 mmHg 55%
    13:00 +9°C° 0 mm 5 mps 595 mmHg 54%
    14:00 +7°C° 1.6 mm 4 mps 595 mmHg 67%
    15:00 +5°C° 1.6 mm 3 mps 594 mmHg 79%
    16:00 +4°C° 1.6 mm 2 mps 594 mmHg 91%
    17:00 +2°C° 1.6 mm 2 mps 594 mmHg 93%
    18:00 +1°C° 1.6 mm 2 mps 594 mmHg 95%
    19:00 -1°C° 1.6 mm 2 mps 593 mmHg 97%
    20:00 -2°C° 0.8 mm 2 mps 593 mmHg 97%
    21:00 -3°C° 0.8 mm 2 mps 594 mmHg 97%
    22:00 -4°C° 0.8 mm 2 mps 594 mmHg 97%
    23:00 -4°C° 0.3 mm 2 mps 593 mmHg 96%

    27 April, Saturday

    Time Temperature Precipitation Wind Pressure Humidity
    00:00 -4°C° 0.3 mm 2 mps 593 mmHg 96%
    01:00 -5°C° 0.3 mm 2 mps 593 mmHg 96%
    02:00 -5°C° 0.3 mm 2 mps 593 mmHg 96%
    03:00 -5°C° 0.3 mm 2 mps 593 mmHg 96%
    04:00 -5°C° 0.3 mm 2 mps 593 mmHg 96%
    05:00 -5°C° 0.2 mm 2 mps 594 mmHg 94%
    06:00 -4°C° 0.2 mm 2 mps 594 mmHg 92%
    07:00 -4°C° 0.2 mm 2 mps 594 mmHg 91%
    08:00 -3°C° 0 mm 2 mps 594 mmHg 86%
    09:00 -2°C° 0 mm 2 mps 595 mmHg 82%
    10:00 +1°C° 0 mm 2 mps 595 mmHg 78%
    11:00 +2°C° 0.1 mm 2 mps 595 mmHg 75%
    12:00 +3°C° 0.1 mm 2 mps 595 mmHg 71%
    13:00 +5°C° 0.1 mm 1 mps 596 mmHg 67%
    14:00 +3°C° 0.3 mm 2 mps 595 mmHg 71%
    15:00 +3°C° 0.3 mm 2 mps 595 mmHg 75%
    16:00 +2°C° 0.3 mm 2 mps 594 mmHg 79%
    17:00 +1°C° 0.9 mm 2 mps 594 mmHg 84%
    18:00 -1°C° 0.9 mm 2 mps 594 mmHg 89%
    19:00 -2°C° 0.9 mm 2 mps 593 mmHg 95%
    20:00 -2°C° 1.5 mm 2 mps 593 mmHg 95%
    21:00 -2°C° 1.5 mm 2 mps 594 mmHg 95%
    22:00 -3°C° 1.5 mm 2 mps 594 mmHg 95%
    23:00 -3°C° 1.6 mm 2 mps 594 mmHg 96%

    28 April, Sunday

    Time Temperature Precipitation Wind Pressure Humidity
    00:00 -4°C° 1.6 mm 2 mps 593 mmHg 96%
    01:00 -4°C° 1.6 mm 2 mps 593 mmHg 96%
    02:00 -5°C° 0.8 mm 2 mps 593 mmHg 95%
    03:00 -4°C° 0.8 mm 1 mps 593 mmHg 95%
    04:00 -4°C° 0.8 mm 1 mps 592 mmHg 94%
    05:00 -4°C° 0.5 mm 1 mps 593 mmHg 93%
    06:00 -3°C° 0.5 mm 1 mps 593 mmHg 92%
    07:00 -3°C° 0.5 mm 1 mps 593 mmHg 92%
    08:00 -4°C° 0.3 mm 2 mps 594 mmHg 92%
    09:00 -3°C° 0.3 mm 2 mps 594 mmHg 92%
    10:00 -2°C° 0.3 mm 2 mps 594 mmHg 92%
    11:00 -2°C° 0.4 mm 2 mps 594 mmHg 93%
    12:00 -2°C° 0.4 mm 3 mps 594 mmHg 94%
    13:00 -1°C° 0.4 mm 3 mps 594 mmHg 94%
    14:00 -1°C° 0.4 mm 3 mps 594 mmHg 94%
    15:00 -1°C° 0.4 mm 3 mps 594 mmHg 94%
    16:00 -1°C° 0.4 mm 3 mps 594 mmHg 94%
    17:00 -2°C° 0.2 mm 3 mps 594 mmHg 95%
    18:00 -2°C° 0.2 mm 2 mps 594 mmHg 96%
    19:00 -3°C° 0.2 mm 2 mps 594 mmHg 97%
    20:00 -3°C° 0.1 mm 2 mps 594 mmHg 97%
    21:00 -3°C° 0.1 mm 2 mps 595 mmHg 97%
    22:00 -4°C° 0.1 mm 2 mps 595 mmHg 97%
    23:00 -4°C° 0 mm 2 mps 595 mmHg 97%

    29 April, Monday

    Time Temperature Precipitation Wind Pressure Humidity
    00:00 -4°C° 0 mm 2 mps 595 mmHg 98%
    01:00 -4°C° 0 mm 2 mps 595 mmHg 98%
    02:00 -5°C° 0 mm 2 mps 595 mmHg 97%
    03:00 -5°C° 0 mm 2 mps 594 mmHg 97%
    04:00 -5°C° 0 mm 2 mps 594 mmHg 96%
    05:00 -4°C° 0.1 mm 2 mps 594 mmHg 95%
    06:00 -4°C° 0.1 mm 2 mps 594 mmHg 95%
    07:00 -3°C° 0.1 mm 2 mps 595 mmHg 94%
    08:00 -3°C° 0.7 mm 2 mps 594 mmHg 94%
    09:00 -2°C° 0.7 mm 3 mps 594 mmHg 95%
    10:00 -2°C° 0.7 mm 3 mps 594 mmHg 95%
    11:00 -2°C° 0.8 mm 3 mps 594 mmHg 95%
    12:00 -1°C° 0.8 mm 3 mps 594 mmHg 95%
    13:00 -1°C° 0.8 mm 3 mps 594 mmHg 95%
    14:00 -1°C° 0.4 mm 3 mps 594 mmHg 95%
    15:00 -1°C° 0.4 mm 3 mps 594 mmHg 96%
    16:00 -1°C° 0.4 mm 3 mps 593 mmHg 96%
    17:00 -2°C° 0.3 mm 3 mps 593 mmHg 96%
    18:00 -2°C° 0.3 mm 3 mps 593 mmHg 96%
    19:00 -2°C° 0.3 mm 2 mps 593 mmHg 96%
    20:00 -2°C° 0.4 mm 2 mps 593 mmHg 96%
    21:00 -3°C° 0.4 mm 2 mps 593 mmHg 96%
    22:00 -3°C° 0.4 mm 2 mps 594 mmHg 96%
    23:00 -3°C° 0.7 mm 2 mps 594 mmHg 96%
    Show more